Time,TemperatureF,DewpointF,PressureIn,WindDirection,WindDirectionDegrees,WindSpeedMPH,WindSpeedGustMPH,Humidity,HourlyPrecipIn,Conditions,Clouds,dailyrainin,SolarRadiationWatts/m^2,SoftwareType,DateUTC
2013-10-18 00:00:00,42.8,41.2,29.81,NNE,16,0.0,0.0,94,0.01,,OVC,0.06,0.00,VWS V14.01,2013-10-18 05:00:00,
2013-10-18 00:05:00,42.8,41.2,29.81,NNE,16,0.0,0.0,94,0.01,,OVC,0.00,0.00,VWS V14.01,2013-10-18 05:05:00,
2013-10-18 00:10:00,42.8,41.2,29.81,NNE,16,0.0,0.0,94,0.01,,OVC,0.00,0.00,VWS V14.01,2013-10-18 05:10:00,
2013-10-18 00:15:00,42.8,41.2,29.81,NNE,16,0.0,0.0,94,0.01,,OVC,0.00,0.00,VWS V14.01,2013-10-18 05:15:00,
2013-10-18 00:20:00,42.8,41.2,29.81,NNE,17,0.0,0.0,94,0.01,,OVC,0.00,0.00,VWS V14.01,2013-10-18 05:20:00,
2013-10-18 00:25:00,42.7,41.1,29.81,NNE,16,0.0,0.0,94,0.01,,OVC,0.01,0.00,VWS V14.01,2013-10-18 05:25:00,
2013-10-18 00:30:00,42.7,41.1,29.81,NNE,16,0.0,0.0,94,0.01,,OVC,0.01,0.00,VWS V14.01,2013-10-18 05:30:00,
2013-10-18 00:35:00,42.7,41.1,29.81,NNE,16,0.0,0.0,94,0.01,,OVC,0.01,0.00,VWS V14.01,2013-10-18 05:35:00,
2013-10-18 00:40:00,42.7,41.1,29.80,NNE,16,0.0,0.0,94,0.01,,OVC,0.01,0.00,VWS V14.01,2013-10-18 05:40:00,
2013-10-18 00:45:00,42.7,41.1,29.80,NNE,16,0.0,0.0,94,0.01,,OVC,0.01,0.00,VWS V15.00,2013-10-18 05:45:00,
2013-10-18 00:46:00,42.7,41.1,29.80,NNE,16,0.0,0.0,94,0.01,,OVC,0.01,0.00,VWS V14.01,2013-10-18 05:46:00,
2013-10-18 00:51:00,42.7,41.1,29.81,NNE,16,0.0,0.0,94,0.01,,OVC,0.01,0.00,VWS V14.01,2013-10-18 05:51:00,
2013-10-18 00:55:00,42.7,41.1,29.80,NNE,16,0.0,0.0,94,0.01,,OVC,0.01,0.00,VWS V15.00,2013-10-18 05:55:00,
2013-10-18 00:56:00,42.7,41.1,29.80,NNE,16,0.0,0.0,94,0.01,,OVC,0.01,0.00,VWS V14.01,2013-10-18 05:56:00,
2013-10-18 01:00:00,42.7,41.1,29.80,NNE,17,0.0,0.0,94,0.02,,OVC,0.02,0.00,VWS V15.00,2013-10-18 06:00:00,
2013-10-18 01:01:00,42.7,41.1,29.80,NNE,16,0.0,0.0,94,0.01,,OVC,0.01,0.00,VWS V14.01,2013-10-18 06:01:00,
2013-10-18 01:05:00,42.7,41.1,29.80,NNE,17,0.0,0.0,94,0.02,,OVC,0.02,0.00,VWS V15.00,2013-10-18 06:05:00,
2013-10-18 01:06:00,42.7,41.1,29.80,NNE,16,0.0,0.0,94,0.02,,OVC,0.02,0.00,VWS V14.01,2013-10-18 06:06:00,
2013-10-18 01:10:00,42.7,41.1,29.81,NNE,13,0.0,0.0,94,0.02,,OVC,0.02,0.00,VWS V15.00,2013-10-18 06:10:00,
2013-10-18 01:11:00,42.7,41.1,29.81,NNE,13,0.0,0.0,94,0.02,,OVC,0.02,0.00,VWS V14.01,2013-10-18 06:11:00,
2013-10-18 01:15:00,42.7,41.1,29.80,NNE,13,0.0,0.0,94,0.02,,OVC,0.02,0.00,VWS V15.00,2013-10-18 06:15:00,
2013-10-18 01:16:00,42.7,41.1,29.80,NNE,13,0.0,0.0,94,0.02,,OVC,0.02,0.00,VWS V14.01,2013-10-18 06:16:00,
2013-10-18 01:20:00,42.7,41.1,29.80,NNE,13,1.0,2.0,94,0.03,,OVC,0.03,0.00,VWS V15.00,2013-10-18 06:20:00,
2013-10-18 01:21:00,42.7,41.1,29.80,NNE,13,1.0,2.0,94,0.03,,OVC,0.03,0.00,VWS V14.01,2013-10-18 06:21:00,
2013-10-18 01:25:00,42.7,41.1,29.80,NNE,13,0.0,2.0,94,0.03,,OVC,0.03,0.00,VWS V15.00,2013-10-18 06:25:00,
2013-10-18 01:26:00,42.7,41.1,29.80,NNE,13,0.0,2.0,94,0.03,,OVC,0.03,0.00,VWS V14.01,2013-10-18 06:26:00,
2013-10-18 01:30:00,42.7,41.1,29.80,NNE,13,0.0,1.0,94,0.02,,OVC,0.03,0.00,VWS V15.00,2013-10-18 06:30:00,
2013-10-18 01:31:00,42.7,41.1,29.80,NNE,13,0.0,1.0,94,0.02,,OVC,0.03,0.00,VWS V14.01,2013-10-18 06:31:00,
2013-10-18 01:35:00,42.7,41.1,29.80,NNE,13,0.0,2.0,94,0.02,,OVC,0.03,0.00,VWS V15.00,2013-10-18 06:35:00,
2013-10-18 01:36:00,42.7,41.1,29.80,NNE,13,0.0,0.0,94,0.02,,OVC,0.03,0.00,VWS V14.01,2013-10-18 06:36:00,
2013-10-18 01:40:00,42.8,41.2,29.80,NNE,13,0.0,2.0,94,0.02,,OVC,0.03,0.00,VWS V15.00,2013-10-18 06:40:00,
2013-10-18 01:41:00,42.8,41.2,29.80,NNE,13,0.0,0.0,94,0.02,,OVC,0.03,0.00,VWS V14.01,2013-10-18 06:41:00,
2013-10-18 01:45:00,42.8,41.2,29.80,NNE,13,0.0,3.0,94,0.02,,OVC,0.03,0.00,VWS V15.00,2013-10-18 06:45:00,
2013-10-18 01:46:00,42.8,41.2,29.80,NNE,13,0.0,0.0,94,0.02,,OVC,0.03,0.00,VWS V14.01,2013-10-18 06:46:00,
2013-10-18 01:50:00,42.7,41.1,29.80,NNE,13,0.0,3.0,94,0.02,,OVC,0.03,0.00,VWS V15.00,2013-10-18 06:50:00,
2013-10-18 01:51:00,42.7,41.1,29.80,NNE,13,0.0,0.0,94,0.02,,OVC,0.03,0.00,VWS V14.01,2013-10-18 06:51:00,
2013-10-18 01:55:00,42.8,41.2,29.80,NNE,13,0.0,4.0,94,0.02,,OVC,0.03,0.00,VWS V15.00,2013-10-18 06:55:00,
2013-10-18 01:56:00,42.7,41.1,29.80,NNE,13,0.0,0.0,94,0.02,,OVC,0.03,0.00,VWS V14.01,2013-10-18 06:56:00,
2013-10-18 02:00:00,42.8,41.2,29.80,NNE,13,0.0,0.0,94,0.02,,OVC,0.03,0.00,VWS V15.00,2013-10-18 07:00:00,
2013-10-18 02:01:00,42.8,41.2,29.80,NNE,13,0.0,0.0,94,0.01,,OVC,0.03,0.00,VWS V14.01,2013-10-18 07:01:00,
2013-10-18 02:05:00,42.8,41.2,29.80,NNE,13,0.0,0.0,94,0.01,,OVC,0.03,0.00,VWS V15.00,2013-10-18 07:05:00,
2013-10-18 02:06:00,42.8,41.2,29.80,NNE,13,0.0,0.0,94,0.01,,OVC,0.03,0.00,VWS V14.01,2013-10-18 07:06:00,
2013-10-18 02:10:00,42.6,41.0,29.80,NNE,13,0.0,2.0,94,0.01,,OVC,0.03,0.00,VWS V15.00,2013-10-18 07:10:00,
2013-10-18 02:12:00,42.7,41.1,29.80,NNE,13,0.0,0.0,94,0.01,,OVC,0.03,0.00,VWS V14.01,2013-10-18 07:12:00,
2013-10-18 02:15:00,42.6,41.0,29.80,NNE,13,0.0,0.0,94,0.01,,OVC,0.03,0.00,VWS V15.00,2013-10-18 07:15:00,
2013-10-18 02:17:00,42.6,41.0,29.80,NNE,13,0.0,0.0,94,0.01,,OVC,0.03,0.00,VWS V14.01,2013-10-18 07:17:00,
2013-10-18 02:20:00,42.5,40.9,29.80,NNE,13,0.0,0.0,94,0.02,,OVC,0.04,0.00,VWS V15.00,2013-10-18 07:20:00,
2013-10-18 02:22:00,42.5,40.9,29.80,NNE,13,0.0,0.0,94,0.01,,OVC,0.04,0.00,VWS V14.01,2013-10-18 07:22:00,
2013-10-18 02:25:00,42.6,41.0,29.80,NNE,13,0.0,2.0,94,0.01,,OVC,0.04,0.00,VWS V15.00,2013-10-18 07:25:00,
2013-10-18 02:27:00,42.6,41.0,29.80,NNE,13,0.0,0.0,94,0.01,,OVC,0.04,0.00,VWS V14.01,2013-10-18 07:27:00,
2013-10-18 02:30:00,42.5,40.9,29.80,NNE,13,0.0,0.0,94,0.01,,OVC,0.04,0.00,VWS V15.00,2013-10-18 07:30:00,
2013-10-18 02:32:00,42.5,40.9,29.80,NNE,13,0.0,0.0,94,0.01,,OVC,0.04,0.00,VWS V14.01,2013-10-18 07:32:00,
2013-10-18 02:35:00,42.5,40.9,29.80,NNE,13,0.0,2.0,94,0.01,,OVC,0.04,0.00,VWS V15.00,2013-10-18 07:35:00,
2013-10-18 02:37:00,42.4,40.8,29.80,NNE,13,0.0,0.0,94,0.01,,OVC,0.04,0.00,VWS V14.01,2013-10-18 07:37:00,
2013-10-18 02:40:00,42.4,40.8,29.80,NNE,13,0.0,0.0,94,0.02,,OVC,0.05,0.00,VWS V15.00,2013-10-18 07:40:00,
2013-10-18 02:42:00,42.4,40.8,29.80,NNE,19,2.0,4.0,94,0.02,,OVC,0.05,0.00,VWS V14.01,2013-10-18 07:42:00,
2013-10-18 02:45:00,42.5,40.9,29.80,North,360,1.0,9.0,94,0.02,,OVC,0.05,0.00,VWS V15.00,2013-10-18 07:45:00,
2013-10-18 02:47:00,42.5,40.9,29.80,NNE,12,9.0,9.0,94,0.02,,OVC,0.05,0.00,VWS V14.01,2013-10-18 07:47:00,
2013-10-18 02:50:00,42.5,40.9,29.80,ENE,57,2.0,9.0,94,0.02,,OVC,0.05,0.00,VWS V15.00,2013-10-18 07:50:00,
2013-10-18 02:52:00,42.4,40.8,29.80,NNE,14,4.0,6.0,94,0.02,,OVC,0.05,0.00,VWS V14.01,2013-10-18 07:52:00,
2013-10-18 02:55:00,42.2,40.6,29.80,NE,43,1.0,6.0,94,0.02,,OVC,0.05,0.00,VWS V15.00,2013-10-18 07:55:00,
2013-10-18 02:57:00,42.2,40.6,29.80,NE,43,0.0,1.0,94,0.02,,OVC,0.05,0.00,VWS V14.01,2013-10-18 07:57:00,
2013-10-18 03:00:00,42.2,40.6,29.80,NE,43,0.0,5.0,94,0.03,,OVC,0.06,0.00,VWS V15.00,2013-10-18 08:00:00,
2013-10-18 03:02:00,42.2,40.6,29.80,NE,43,0.0,0.0,94,0.03,,OVC,0.06,0.00,VWS V14.01,2013-10-18 08:02:00,
2013-10-18 03:05:00,42.2,40.6,29.80,NNE,28,3.0,4.0,94,0.03,,OVC,0.06,0.00,VWS V15.00,2013-10-18 08:05:00,
2013-10-18 03:07:00,42.2,40.6,29.80,NNE,29,4.0,4.0,94,0.03,,OVC,0.06,0.00,VWS V14.01,2013-10-18 08:07:00,
2013-10-18 03:10:00,42.1,40.5,29.80,NE,35,2.0,4.0,94,0.03,,OVC,0.06,0.00,VWS V15.00,2013-10-18 08:10:00,
2013-10-18 03:12:00,42.0,40.4,29.80,NE,35,1.0,2.0,94,0.03,,OVC,0.06,0.00,VWS V14.01,2013-10-18 08:12:00,
2013-10-18 03:15:00,42.0,40.4,29.80,NE,34,0.0,5.0,94,0.03,,OVC,0.06,0.00,VWS V15.00,2013-10-18 08:15:00,
2013-10-18 03:17:00,42.0,40.4,29.80,NNE,24,2.0,3.0,94,0.03,,OVC,0.06,0.00,VWS V14.01,2013-10-18 08:17:00,
2013-10-18 03:20:00,42.0,40.4,29.80,NE,34,1.0,7.0,94,0.03,,OVC,0.06,0.00,VWS V15.00,2013-10-18 08:20:00,
2013-10-18 03:22:00,42.0,40.4,29.80,North,5,1.0,3.0,94,0.02,,OVC,0.06,0.00,VWS V14.01,2013-10-18 08:22:00,
2013-10-18 03:25:00,42.0,40.4,29.80,North,9,4.0,6.0,94,0.02,,OVC,0.06,0.00,VWS V15.00,2013-10-18 08:25:00,
2013-10-18 03:27:00,42.0,40.4,29.80,NE,44,0.0,4.0,94,0.02,,OVC,0.06,0.00,VWS V14.01,2013-10-18 08:27:00,
2013-10-18 03:30:00,41.9,40.3,29.80,NE,47,0.0,4.0,94,0.02,,OVC,0.06,0.00,VWS V15.00,2013-10-18 08:30:00,
2013-10-18 03:32:00,41.9,40.3,29.80,NE,47,2.0,3.0,94,0.03,,OVC,0.07,0.00,VWS V14.01,2013-10-18 08:32:00,
2013-10-18 03:35:00,41.8,40.2,29.80,NE,46,0.0,3.0,94,0.03,,OVC,0.07,0.00,VWS V15.00,2013-10-18 08:35:00,
2013-10-18 03:37:00,41.8,40.2,29.80,NE,46,0.0,0.0,94,0.03,,OVC,0.07,0.00,VWS V14.01,2013-10-18 08:37:00,
2013-10-18 03:40:00,41.9,40.3,29.80,NE,46,0.0,0.0,94,0.03,,OVC,0.07,0.00,VWS V15.00,2013-10-18 08:40:00,
2013-10-18 03:42:00,41.9,40.3,29.80,NE,46,0.0,0.0,94,0.02,,OVC,0.07,0.00,VWS V14.01,2013-10-18 08:42:00,
2013-10-18 03:45:00,41.9,40.3,29.80,North,360,0.0,5.0,94,0.02,,OVC,0.07,0.00,VWS V15.00,2013-10-18 08:45:00,
2013-10-18 03:47:00,41.8,40.2,29.80,North,349,1.0,3.0,94,0.02,,OVC,0.07,0.00,VWS V14.01,2013-10-18 08:47:00,
2013-10-18 03:50:00,41.8,40.2,29.80,NNE,13,3.0,6.0,94,0.02,,OVC,0.07,0.00,VWS V15.00,2013-10-18 08:50:00,
2013-10-18 03:52:00,41.8,40.2,29.80,NNE,13,0.0,3.0,94,0.02,,OVC,0.07,0.00,VWS V14.01,2013-10-18 08:52:00,
2013-10-18 03:55:00,41.7,40.1,29.80,North,11,0.0,3.0,94,0.02,,OVC,0.07,0.00,VWS V15.00,2013-10-18 08:55:00,
2013-10-18 03:57:00,41.7,40.1,29.80,North,11,3.0,3.0,94,0.02,,OVC,0.07,0.00,VWS V14.01,2013-10-18 08:57:00,
2013-10-18 04:00:00,41.7,40.1,29.80,North,11,0.0,3.0,94,0.02,,OVC,0.07,0.00,VWS V15.00,2013-10-18 09:00:00,
2013-10-18 04:02:00,41.7,40.1,29.80,NNE,30,1.0,4.0,94,0.01,,OVC,0.07,0.00,VWS V14.01,2013-10-18 09:02:00,
2013-10-18 04:05:00,41.6,40.0,29.80,North,10,1.0,4.0,94,0.01,,OVC,0.07,0.00,VWS V15.00,2013-10-18 09:05:00,
2013-10-18 04:07:00,41.7,40.1,29.80,NNW,344,2.0,3.0,94,0.01,,OVC,0.07,0.00,VWS V14.01,2013-10-18 09:07:00,
2013-10-18 04:10:00,41.6,40.0,29.80,North,350,6.0,6.0,94,0.01,,OVC,0.07,0.00,VWS V15.00,2013-10-18 09:10:00,
2013-10-18 04:12:00,41.6,40.0,29.80,North,9,1.0,6.0,94,0.01,,OVC,0.07,0.00,VWS V14.01,2013-10-18 09:12:00,
2013-10-18 04:15:00,41.5,39.9,29.80,NNW,348,5.0,6.0,94,0.01,,OVC,0.07,0.00,VWS V15.00,2013-10-18 09:15:00,
2013-10-18 04:17:00,41.5,39.9,29.80,NNW,333,4.0,8.0,94,0.01,,OVC,0.07,0.00,VWS V14.01,2013-10-18 09:17:00,
2013-10-18 04:20:00,41.6,40.0,29.80,NE,39,0.0,8.0,94,0.01,,OVC,0.07,0.00,VWS V15.00,2013-10-18 09:20:00,
2013-10-18 04:23:00,41.6,40.0,29.80,North,5,5.0,5.0,94,0.02,,OVC,0.08,0.00,VWS V14.01,2013-10-18 09:23:00,
2013-10-18 04:25:00,41.5,39.9,29.80,North,9,0.0,7.0,94,0.02,,OVC,0.08,0.00,VWS V15.00,2013-10-18 09:25:00,
2013-10-18 04:28:00,41.5,39.9,29.80,NW,323,0.0,3.0,94,0.02,,OVC,0.08,0.00,VWS V14.01,2013-10-18 09:28:00,
2013-10-18 04:30:00,41.5,39.9,29.80,North,11,0.0,7.0,94,0.02,,OVC,0.08,0.00,VWS V15.00,2013-10-18 09:30:00,
2013-10-18 04:33:00,41.4,39.8,29.80,North,11,0.0,6.0,94,0.02,,OVC,0.08,0.00,VWS V14.01,2013-10-18 09:33:00,
2013-10-18 04:35:00,41.5,39.9,29.80,NNW,335,1.0,7.0,94,0.02,,OVC,0.08,0.00,VWS V15.00,2013-10-18 09:35:00,
2013-10-18 04:38:00,41.5,39.9,29.80,ENE,72,0.0,4.0,94,0.01,,OVC,0.08,0.00,VWS V14.01,2013-10-18 09:38:00,
2013-10-18 04:40:00,41.5,39.9,29.80,NW,306,4.0,6.0,94,0.01,,OVC,0.08,0.00,VWS V15.00,2013-10-18 09:40:00,
2013-10-18 04:43:00,41.4,39.8,29.80,NNW,331,0.0,4.0,94,0.01,,OVC,0.08,0.00,VWS V14.01,2013-10-18 09:43:00,
2013-10-18 04:45:00,41.4,39.8,29.80,NE,39,2.0,10.0,94,0.01,,OVC,0.08,0.00,VWS V15.00,2013-10-18 09:45:00,
2013-10-18 04:48:00,41.4,39.8,29.80,NE,39,0.0,2.0,94,0.01,,OVC,0.08,0.00,VWS V14.01,2013-10-18 09:48:00,
2013-10-18 04:50:00,41.4,39.8,29.80,NNW,331,0.0,6.0,94,0.01,,OVC,0.08,0.00,VWS V15.00,2013-10-18 09:50:00,
2013-10-18 04:53:00,41.4,39.8,29.81,North,11,0.0,6.0,94,0.01,,OVC,0.08,0.00,VWS V14.01,2013-10-18 09:53:00,
2013-10-18 04:55:00,41.4,39.8,29.81,NE,55,2.0,6.0,94,0.01,,OVC,0.08,0.00,VWS V15.00,2013-10-18 09:55:00,
2013-10-18 04:58:00,41.4,39.8,29.81,NE,38,0.0,4.0,94,0.01,,OVC,0.08,0.00,VWS V14.01,2013-10-18 09:58:00,
2013-10-18 05:00:00,41.3,39.4,29.81,NNW,338,3.0,6.0,93,0.01,,OVC,0.08,0.00,VWS V15.00,2013-10-18 10:00:00,
2013-10-18 05:03:00,41.4,39.8,29.81,North,355,0.0,4.0,94,0.01,,OVC,0.08,0.00,VWS V14.01,2013-10-18 10:03:00,
2013-10-18 05:05:00,41.4,39.8,29.81,NNE,19,1.0,7.0,94,0.01,,OVC,0.08,0.00,VWS V15.00,2013-10-18 10:05:00,
2013-10-18 05:08:00,41.4,39.8,29.81,NNE,17,3.0,3.0,94,0.01,,OVC,0.08,0.00,VWS V14.01,2013-10-18 10:08:00,
2013-10-18 05:10:00,41.4,39.8,29.81,NW,304,1.0,5.0,94,0.01,,OVC,0.08,0.00,VWS V15.00,2013-10-18 10:10:00,
2013-10-18 05:13:00,41.4,39.8,29.81,North,9,0.0,6.0,94,0.01,,OVC,0.08,0.00,VWS V14.01,2013-10-18 10:13:00,
2013-10-18 05:15:00,41.4,39.8,29.81,North,360,8.0,8.0,94,0.01,,OVC,0.08,0.00,VWS V15.00,2013-10-18 10:15:00,
2013-10-18 05:18:00,41.3,39.4,29.81,North,5,2.0,8.0,93,0.02,,OVC,0.09,0.00,VWS V14.01,2013-10-18 10:18:00,
2013-10-18 05:20:00,41.2,39.3,29.81,NNW,344,3.0,8.0,93,0.02,,OVC,0.09,0.00,VWS V15.00,2013-10-18 10:20:00,
2013-10-18 05:23:00,41.1,39.2,29.81,NW,317,5.0,7.0,93,0.02,,OVC,0.09,0.00,VWS V14.01,2013-10-18 10:23:00,
2013-10-18 05:25:00,41.1,39.2,29.81,NNW,348,4.0,7.0,93,0.02,,OVC,0.09,0.00,VWS V15.00,2013-10-18 10:25:00,
2013-10-18 05:28:00,41.1,39.2,29.81,NW,320,0.0,5.0,93,0.01,,OVC,0.09,0.00,VWS V14.01,2013-10-18 10:28:00,
2013-10-18 05:30:00,41.1,39.2,29.81,WNW,292,1.0,5.0,93,0.01,,OVC,0.09,0.00,VWS V15.00,2013-10-18 10:30:00,
2013-10-18 05:33:00,41.1,39.2,29.81,North,360,0.0,6.0,93,0.01,,OVC,0.09,0.00,VWS V14.01,2013-10-18 10:33:00,
2013-10-18 05:35:00,41.1,39.2,29.81,NW,311,5.0,10.0,93,0.01,,OVC,0.09,0.00,VWS V15.00,2013-10-18 10:35:00,
2013-10-18 05:39:00,41.1,39.2,29.81,West,267,3.0,6.0,93,0.01,,OVC,0.09,0.00,VWS V14.01,2013-10-18 10:39:00,
2013-10-18 05:40:00,41.1,39.2,29.81,NNW,347,6.0,8.0,93,0.01,,OVC,0.09,0.00,VWS V15.00,2013-10-18 10:40:00,
2013-10-18 05:44:00,41.0,39.1,29.81,NNW,336,0.0,9.0,93,0.01,,OVC,0.09,0.00,VWS V14.01,2013-10-18 10:44:00,
2013-10-18 05:45:00,40.9,39.0,29.81,NE,51,0.0,9.0,93,0.01,,OVC,0.09,0.00,VWS V15.00,2013-10-18 10:45:00,
2013-10-18 05:49:00,40.8,38.9,29.81,NNE,15,0.0,6.0,93,0.01,,OVC,0.09,0.00,VWS V14.01,2013-10-18 10:49:00,
2013-10-18 05:50:00,40.8,38.9,29.82,NW,325,0.0,9.0,93,0.01,,OVC,0.09,0.00,VWS V15.00,2013-10-18 10:50:00,
2013-10-18 05:54:00,41.0,39.4,29.82,NW,323,2.0,4.0,94,0.01,,OVC,0.09,0.00,VWS V14.01,2013-10-18 10:54:00,
2013-10-18 05:55:00,40.9,39.0,29.81,NNW,335,2.0,8.0,93,0.01,,OVC,0.09,0.00,VWS V15.00,2013-10-18 10:55:00,
2013-10-18 05:59:00,40.8,38.9,29.82,NNW,338,2.0,6.0,93,0.01,,OVC,0.09,0.00,VWS V14.01,2013-10-18 10:59:00,
2013-10-18 06:00:00,40.8,38.9,29.82,WNW,301,1.0,6.0,93,0.01,,OVC,0.09,0.00,VWS V15.00,2013-10-18 11:00:00,
2013-10-18 06:04:00,40.8,38.9,29.82,North,355,2.0,7.0,93,0.01,,OVC,0.09,0.00,VWS V14.01,2013-10-18 11:04:00,
2013-10-18 06:05:00,40.8,38.9,29.82,West,274,0.0,7.0,93,0.01,,OVC,0.09,0.00,VWS V15.00,2013-10-18 11:05:00,
2013-10-18 06:09:00,40.8,38.9,29.82,North,355,6.0,6.0,93,0.01,,OVC,0.09,0.00,VWS V14.01,2013-10-18 11:09:00,
2013-10-18 06:10:00,40.9,39.3,29.82,NW,323,0.0,7.0,94,0.01,,OVC,0.09,0.00,VWS V15.00,2013-10-18 11:10:00,
2013-10-18 06:14:00,40.9,39.3,29.82,NNW,331,0.0,4.0,94,0.01,,OVC,0.09,0.00,VWS V14.01,2013-10-18 11:14:00,
2013-10-18 06:15:00,40.8,38.9,29.82,NNW,348,6.0,6.0,93,0.01,,OVC,0.09,0.00,VWS V15.00,2013-10-18 11:15:00,
2013-10-18 06:19:00,40.7,38.8,29.82,North,355,1.0,7.0,93,0.01,,OVC,0.09,0.00,VWS V14.01,2013-10-18 11:19:00,
2013-10-18 06:20:00,40.7,38.8,29.82,North,355,9.0,13.0,93,0.01,,OVC,0.09,0.00,VWS V15.00,2013-10-18 11:20:00,
2013-10-18 06:24:00,40.7,38.8,29.82,NW,326,1.0,9.0,93,0.00,,OVC,0.09,0.00,VWS V14.01,2013-10-18 11:24:00,
2013-10-18 06:25:00,40.6,38.7,29.82,North,9,1.0,9.0,93,0.00,,OVC,0.09,0.00,VWS V15.00,2013-10-18 11:25:00,
2013-10-18 06:29:00,40.6,38.7,29.82,NE,47,2.0,5.0,93,0.00,,OVC,0.09,0.00,VWS V14.01,2013-10-18 11:29:00,
2013-10-18 06:30:00,40.5,38.6,29.82,NW,313,1.0,7.0,93,0.00,,OVC,0.09,0.00,VWS V15.00,2013-10-18 11:30:00,
2013-10-18 06:34:00,40.5,38.6,29.82,NNW,347,0.0,5.0,93,0.01,,OVC,0.10,0.00,VWS V14.01,2013-10-18 11:34:00,
2013-10-18 06:35:00,40.5,38.6,29.82,NW,314,0.0,5.0,93,0.01,,OVC,0.10,0.00,VWS V15.00,2013-10-18 11:35:00,
2013-10-18 06:39:00,40.4,38.5,29.82,NW,313,3.0,9.0,93,0.01,,OVC,0.10,0.00,VWS V14.01,2013-10-18 11:39:00,
2013-10-18 06:40:00,40.4,38.5,29.82,NNW,339,5.0,9.0,93,0.01,,OVC,0.10,0.00,VWS V15.00,2013-10-18 11:40:00,
2013-10-18 06:44:00,40.4,38.5,29.82,West,275,0.0,11.0,93,0.01,,OVC,0.10,0.00,VWS V14.01,2013-10-18 11:44:00,
2013-10-18 06:45:00,40.3,38.4,29.83,North,355,2.0,11.0,93,0.01,,OVC,0.10,0.00,VWS V15.00,2013-10-18 11:45:00,
2013-10-18 06:49:00,40.3,38.4,29.83,NNW,342,0.0,8.0,93,0.01,,OVC,0.10,0.00,VWS V14.01,2013-10-18 11:49:00,
2013-10-18 06:50:00,40.4,38.5,29.83,NW,319,1.0,8.0,93,0.01,,OVC,0.10,0.00,VWS V15.00,2013-10-18 11:50:00,
2013-10-18 06:54:00,40.3,38.4,29.83,NNW,333,0.0,3.0,93,0.01,,OVC,0.10,0.00,VWS V14.01,2013-10-18 11:54:00,
2013-10-18 06:55:00,40.3,38.4,29.83,NNW,329,3.0,6.0,93,0.01,,OVC,0.10,0.00,VWS V15.00,2013-10-18 11:55:00,
2013-10-18 06:59:00,40.3,38.4,29.83,North,355,4.0,6.0,93,0.01,,OVC,0.10,0.00,VWS V14.01,2013-10-18 11:59:00,
2013-10-18 07:00:00,40.2,38.3,29.83,North,349,2.0,6.0,93,0.01,,OVC,0.10,0.00,VWS V15.00,2013-10-18 12:00:00,
2013-10-18 07:04:00,40.1,38.2,29.83,NNW,334,5.0,7.0,93,0.01,,OVC,0.10,0.00,VWS V14.01,2013-10-18 12:04:00,
2013-10-18 07:05:00,40.1,38.2,29.83,NW,323,0.0,7.0,93,0.01,,OVC,0.10,0.00,VWS V15.00,2013-10-18 12:05:00,
2013-10-18 07:09:00,40.0,38.1,29.83,WNW,302,1.0,5.0,93,0.01,,OVC,0.10,0.00,VWS V14.01,2013-10-18 12:09:00,
2013-10-18 07:10:00,39.9,38.0,29.83,NW,325,0.0,6.0,93,0.01,,OVC,0.10,0.00,VWS V15.00,2013-10-18 12:10:00,
2013-10-18 07:14:00,40.0,38.1,29.83,NNW,348,4.0,12.0,93,0.01,,OVC,0.10,0.00,VWS V14.01,2013-10-18 12:14:00,
2013-10-18 07:15:00,39.9,38.0,29.83,NNW,339,1.0,12.0,93,0.01,,OVC,0.10,0.00,VWS V15.00,2013-10-18 12:15:00,
2013-10-18 07:19:00,39.8,38.0,29.84,NW,308,0.0,8.0,93,0.01,,OVC,0.10,0.00,VWS V14.01,2013-10-18 12:19:00,
2013-10-18 07:20:00,39.8,37.9,29.83,NNW,333,0.0,8.0,93,0.02,,OVC,0.11,0.00,VWS V15.00,2013-10-18 12:20:00,
2013-10-18 07:24:00,39.7,37.8,29.84,NNE,13,5.0,6.0,93,0.02,,OVC,0.11,0.00,VWS V14.01,2013-10-18 12:24:00,
2013-10-18 07:25:00,39.6,37.8,29.84,North,360,2.0,8.0,93,0.02,,OVC,0.11,0.00,VWS V15.00,2013-10-18 12:25:00,
2013-10-18 07:29:00,39.5,37.7,29.84,North,350,1.0,8.0,93,0.02,,OVC,0.11,0.00,VWS V14.01,2013-10-18 12:29:00,
2013-10-18 07:30:00,39.5,37.7,29.84,NW,306,0.0,8.0,93,0.02,,OVC,0.11,0.00,VWS V15.00,2013-10-18 12:30:00,
2013-10-18 07:34:00,39.4,37.5,29.84,NW,321,1.0,9.0,93,0.02,,OVC,0.11,0.00,VWS V14.01,2013-10-18 12:34:00,
2013-10-18 07:35:00,39.4,37.5,29.84,North,5,1.0,9.0,93,0.02,,OVC,0.11,0.00,VWS V15.00,2013-10-18 12:35:00,
2013-10-18 07:39:00,39.3,37.5,29.84,West,281,3.0,13.0,93,0.01,,OVC,0.11,0.00,VWS V14.01,2013-10-18 12:39:00,
2013-10-18 07:40:00,39.3,37.5,29.85,West,281,0.0,13.0,93,0.01,,OVC,0.11,5.00,VWS V15.00,2013-10-18 12:40:00,
2013-10-18 07:45:00,39.3,37.5,29.85,NNW,327,1.0,9.0,93,0.01,,OVC,0.11,9.00,VWS V14.01,2013-10-18 12:45:00,
2013-10-18 07:50:00,39.3,37.5,29.85,NW,326,2.0,13.0,93,0.01,,OVC,0.11,11.00,VWS V14.01,2013-10-18 12:50:00,
2013-10-18 07:55:00,39.0,37.2,29.85,NNW,340,2.0,10.0,93,0.02,,OVC,0.12,12.00,VWS V14.01,2013-10-18 12:55:00,
2013-10-18 08:00:00,38.9,37.0,29.86,North,11,5.0,8.0,93,0.02,,OVC,0.12,12.00,VWS V14.01,2013-10-18 13:00:00,
2013-10-18 08:05:00,38.8,37.0,29.86,WNW,290,5.0,7.0,93,0.02,,OVC,0.12,12.00,VWS V14.01,2013-10-18 13:05:00,
2013-10-18 08:10:00,38.7,36.8,29.86,ESE,121,3.0,5.0,93,0.02,,OVC,0.12,16.00,VWS V14.01,2013-10-18 13:10:00,
2013-10-18 08:15:00,38.8,37.0,29.86,WNW,302,2.0,9.0,93,0.02,,OVC,0.12,18.00,VWS V14.01,2013-10-18 13:15:00,
2013-10-18 08:20:00,38.8,37.0,29.86,NW,307,0.0,7.0,93,0.02,,OVC,0.12,18.00,VWS V14.01,2013-10-18 13:20:00,
2013-10-18 08:25:00,38.8,37.0,29.86,NNW,346,3.0,7.0,93,0.02,,OVC,0.13,25.00,VWS V14.01,2013-10-18 13:25:00,
2013-10-18 08:30:00,38.6,36.8,29.87,North,355,0.0,14.0,93,0.02,,OVC,0.13,25.00,VWS V14.01,2013-10-18 13:30:00,
2013-10-18 08:35:00,38.6,36.8,29.87,North,351,0.0,9.0,93,0.02,,OVC,0.13,25.00,VWS V14.01,2013-10-18 13:35:00,
2013-10-18 08:40:00,38.5,36.4,29.87,NW,322,2.0,8.0,92,0.02,,OVC,0.13,33.00,VWS V14.01,2013-10-18 13:40:00,
2013-10-18 08:45:00,38.3,36.2,29.87,NNE,30,4.0,15.0,92,0.02,,OVC,0.13,28.00,VWS V14.01,2013-10-18 13:45:00,
2013-10-18 08:50:00,38.0,35.9,29.88,NNW,342,4.0,10.0,92,0.02,,OVC,0.13,19.00,VWS V14.01,2013-10-18 13:50:00,
2013-10-18 08:55:00,37.9,35.8,29.88,NNW,338,7.0,13.0,92,0.01,,OVC,0.13,26.00,VWS V14.01,2013-10-18 13:55:00,
2013-10-18 09:00:00,37.9,35.8,29.88,NNE,15,2.0,9.0,92,0.01,,OVC,0.13,32.00,VWS V14.01,2013-10-18 14:00:00,
2013-10-18 09:05:00,38.0,35.9,29.88,NNW,348,7.0,13.0,92,0.01,,OVC,0.13,60.00,VWS V14.01,2013-10-18 14:05:00,
2013-10-18 09:10:00,38.0,35.9,29.89,North,360,4.0,15.0,92,0.01,,OVC,0.13,79.00,VWS V14.01,2013-10-18 14:10:00,
2013-10-18 09:15:00,38.3,36.2,29.89,NNW,336,1.0,11.0,92,0.01,,OVC,0.13,93.00,VWS V15.00,2013-10-18 14:15:00,
2013-10-18 09:16:00,38.3,36.2,29.89,NNW,336,1.0,11.0,92,0.01,,OVC,0.13,93.00,VWS V14.01,2013-10-18 14:16:00,
2013-10-18 09:20:00,38.4,36.3,29.89,NNW,333,6.0,12.0,92,0.01,,OVC,0.13,58.00,VWS V15.00,2013-10-18 14:20:00,
2013-10-18 09:21:00,38.4,36.3,29.89,NNW,342,0.0,12.0,92,0.01,,OVC,0.13,65.00,VWS V14.01,2013-10-18 14:21:00,
2013-10-18 09:25:00,38.3,36.2,29.89,NNE,31,4.0,11.0,92,0.01,,OVC,0.14,62.00,VWS V15.00,2013-10-18 14:25:00,
2013-10-18 09:26:00,38.3,36.2,29.89,WNW,288,3.0,11.0,92,0.01,,OVC,0.14,62.00,VWS V14.01,2013-10-18 14:26:00,
2013-10-18 09:30:00,38.2,36.1,29.89,NNW,338,1.0,13.0,92,0.01,,OVC,0.14,72.00,VWS V15.00,2013-10-18 14:30:00,
2013-10-18 09:31:00,38.1,36.0,29.89,WSW,247,1.0,13.0,92,0.01,,OVC,0.14,72.00,VWS V14.01,2013-10-18 14:31:00,
2013-10-18 09:35:00,37.9,35.8,29.90,NNW,336,7.0,13.0,92,0.01,,OVC,0.14,63.00,VWS V15.00,2013-10-18 14:35:00,
2013-10-18 09:36:00,37.9,35.8,29.90,WNW,302,3.0,13.0,92,0.01,,OVC,0.14,72.00,VWS V14.01,2013-10-18 14:36:00,
2013-10-18 09:40:00,38.0,35.9,29.90,SW,222,3.0,15.0,92,0.01,,OVC,0.14,90.00,VWS V15.00,2013-10-18 14:40:00,
2013-10-18 09:41:00,38.0,35.9,29.90,WNW,297,5.0,15.0,92,0.01,,OVC,0.14,90.00,VWS V14.01,2013-10-18 14:41:00,
2013-10-18 09:45:00,37.9,35.5,29.90,NW,322,3.0,9.0,91,0.01,,OVC,0.14,88.00,VWS V15.00,2013-10-18 14:45:00,
2013-10-18 09:46:00,37.9,35.5,29.90,NW,322,1.0,9.0,91,0.01,,OVC,0.14,86.00,VWS V14.01,2013-10-18 14:46:00,
2013-10-18 09:50:00,37.9,35.5,29.91,North,360,2.0,11.0,91,0.01,,OVC,0.14,107.00,VWS V15.00,2013-10-18 14:50:00,
2013-10-18 09:51:00,37.9,35.5,29.91,North,360,7.0,11.0,91,0.01,,OVC,0.14,107.00,VWS V14.01,2013-10-18 14:51:00,
2013-10-18 09:55:00,38.0,35.9,29.90,West,279,8.0,11.0,92,0.01,,OVC,0.14,102.00,VWS V15.00,2013-10-18 14:55:00,
2013-10-18 09:56:00,38.0,35.6,29.90,NW,322,2.0,11.0,91,0.01,,OVC,0.14,102.00,VWS V14.01,2013-10-18 14:56:00,
2013-10-18 10:00:00,38.0,35.6,29.90,WNW,286,5.0,17.0,91,0.01,,OVC,0.14,130.00,VWS V15.00,2013-10-18 15:00:00,
2013-10-18 10:01:00,38.0,35.6,29.90,NNW,336,6.0,17.0,91,0.01,,OVC,0.14,123.00,VWS V14.01,2013-10-18 15:01:00,
2013-10-18 10:05:00,38.2,36.1,29.91,North,355,3.0,11.0,92,0.01,,OVC,0.14,116.00,VWS V15.00,2013-10-18 15:05:00,
2013-10-18 10:06:00,38.2,36.1,29.91,North,355,4.0,11.0,92,0.01,,OVC,0.14,116.00,VWS V14.01,2013-10-18 15:06:00,
2013-10-18 10:10:00,38.3,36.2,29.90,NNW,342,3.0,10.0,92,0.01,,OVC,0.14,111.00,VWS V15.00,2013-10-18 15:10:00,
2013-10-18 10:11:00,38.3,35.9,29.90,NNE,15,4.0,10.0,91,0.01,,OVC,0.14,111.00,VWS V14.01,2013-10-18 15:11:00,
2013-10-18 10:15:00,38.0,35.6,29.91,NNW,341,4.0,10.0,91,0.01,,OVC,0.14,113.00,VWS V15.00,2013-10-18 15:15:00,
2013-10-18 10:16:00,38.0,35.6,29.91,NNW,341,5.0,10.0,91,0.01,,OVC,0.14,113.00,VWS V14.01,2013-10-18 15:16:00,
2013-10-18 10:20:00,38.1,36.0,29.91,NNE,13,0.0,7.0,92,0.01,,OVC,0.14,109.00,VWS V15.00,2013-10-18 15:20:00,
2013-10-18 10:21:00,38.2,36.1,29.91,NNE,13,1.0,7.0,92,0.01,,OVC,0.14,109.00,VWS V14.01,2013-10-18 15:21:00,
2013-10-18 10:25:00,38.1,35.7,29.91,NE,38,0.0,5.0,91,0.01,,OVC,0.14,107.00,VWS V15.00,2013-10-18 15:25:00,
2013-10-18 10:26:00,38.1,35.7,29.91,NE,38,2.0,5.0,91,0.01,,OVC,0.14,107.00,VWS V14.01,2013-10-18 15:26:00,
2013-10-18 10:30:00,38.3,35.9,29.91,NW,305,3.0,10.0,91,0.00,,OVC,0.14,104.00,VWS V15.00,2013-10-18 15:30:00,
2013-10-18 10:31:00,38.3,35.9,29.91,NW,304,4.0,10.0,91,0.00,,OVC,0.14,104.00,VWS V14.01,2013-10-18 15:31:00,
2013-10-18 10:35:00,38.4,36.0,29.91,North,360,0.0,9.0,91,0.00,,OVC,0.14,107.00,VWS V15.00,2013-10-18 15:35:00,
2013-10-18 10:36:00,38.4,36.0,29.91,North,360,0.0,9.0,91,0.00,,OVC,0.14,107.00,VWS V14.01,2013-10-18 15:36:00,
2013-10-18 10:40:00,38.4,36.0,29.91,North,360,2.0,7.0,91,0.00,,OVC,0.14,121.00,VWS V15.00,2013-10-18 15:40:00,
2013-10-18 10:41:00,38.4,36.0,29.91,North,360,2.0,7.0,91,0.00,,OVC,0.14,121.00,VWS V14.01,2013-10-18 15:41:00,
2013-10-18 10:45:00,38.5,36.1,29.91,West,271,0.0,2.0,91,0.00,,OVC,0.14,163.00,VWS V15.00,2013-10-18 15:45:00,
2013-10-18 10:46:00,38.5,36.1,29.91,West,271,0.0,2.0,91,0.00,,OVC,0.14,163.00,VWS V14.01,2013-10-18 15:46:00,
2013-10-18 10:50:00,38.7,36.3,29.91,NW,308,3.0,6.0,91,0.00,,OVC,0.14,195.00,VWS V15.00,2013-10-18 15:50:00,
2013-10-18 10:51:00,38.7,36.3,29.91,NW,308,3.0,6.0,91,0.00,,OVC,0.14,195.00,VWS V14.01,2013-10-18 15:51:00,
2013-10-18 10:55:00,38.8,36.4,29.91,WSW,256,0.0,6.0,91,0.00,,OVC,0.14,214.00,VWS V15.00,2013-10-18 15:55:00,
2013-10-18 10:56:00,38.8,36.4,29.91,WSW,256,0.0,6.0,91,0.00,,OVC,0.14,214.00,VWS V14.01,2013-10-18 15:56:00,
2013-10-18 11:00:00,39.0,36.3,29.91,West,264,1.0,4.0,90,0.00,,OVC,0.14,234.00,VWS V15.00,2013-10-18 16:00:00,
2013-10-18 11:01:00,39.0,36.3,29.91,West,264,1.0,4.0,90,0.00,,OVC,0.14,234.00,VWS V14.01,2013-10-18 16:01:00,
2013-10-18 11:05:00,39.1,36.4,29.91,NW,308,1.0,7.0,90,0.00,,OVC,0.14,250.00,VWS V15.00,2013-10-18 16:05:00,
2013-10-18 11:06:00,39.1,36.4,29.91,NW,308,0.0,1.0,90,0.00,,OVC,0.14,250.00,VWS V14.01,2013-10-18 16:06:00,
2013-10-18 11:10:00,39.5,37.1,29.91,NW,311,2.0,4.0,91,0.00,,OVC,0.14,232.00,VWS V15.00,2013-10-18 16:10:00,
2013-10-18 11:11:00,39.6,37.2,29.91,NW,311,0.0,2.0,91,0.00,,OVC,0.14,232.00,VWS V14.01,2013-10-18 16:11:00,
2013-10-18 11:15:00,39.6,36.6,29.91,WNW,292,0.0,5.0,89,0.00,,OVC,0.14,227.00,VWS V15.00,2013-10-18 16:15:00,
2013-10-18 11:17:00,39.6,36.6,29.91,WNW,283,3.0,5.0,89,0.00,,OVC,0.14,207.00,VWS V14.01,2013-10-18 16:17:00,
2013-10-18 11:20:00,40.0,37.0,29.91,WNW,303,3.0,9.0,89,0.00,,OVC,0.14,195.00,VWS V15.00,2013-10-18 16:20:00,
2013-10-18 11:22:00,40.0,37.0,29.91,WNW,302,2.0,3.0,89,0.00,,OVC,0.14,195.00,VWS V14.01,2013-10-18 16:22:00,
2013-10-18 11:25:00,40.2,37.2,29.91,NNW,338,7.0,7.0,89,0.00,,OVC,0.14,188.00,VWS V15.00,2013-10-18 16:25:00,
2013-10-18 11:27:00,40.2,37.2,29.91,WNW,300,4.0,7.0,89,0.00,,OVC,0.14,171.00,VWS V14.01,2013-10-18 16:27:00,
2013-10-18 11:30:00,40.6,37.6,29.91,NW,312,3.0,7.0,89,0.00,,OVC,0.14,278.00,VWS V15.00,2013-10-18 16:30:00,
2013-10-18 11:32:00,40.6,37.6,29.91,WNW,291,3.0,4.0,89,0.00,,OVC,0.14,278.00,VWS V14.01,2013-10-18 16:32:00,
2013-10-18 11:35:00,40.8,37.2,29.91,NNW,327,7.0,7.0,87,0.00,,OVC,0.14,279.00,VWS V15.00,2013-10-18 16:35:00,
2013-10-18 11:37:00,40.8,37.2,29.91,NNW,333,0.0,7.0,87,0.00,,OVC,0.14,279.00,VWS V14.01,2013-10-18 16:37:00,
2013-10-18 11:40:00,41.0,37.4,29.91,NW,314,3.0,8.0,87,0.00,,OVC,0.14,243.00,VWS V15.00,2013-10-18 16:40:00,
2013-10-18 11:42:00,41.0,37.4,29.91,NNW,339,2.0,3.0,87,0.00,,OVC,0.14,232.00,VWS V14.01,2013-10-18 16:42:00,
2013-10-18 11:45:00,41.1,37.2,29.91,NNW,336,0.0,10.0,86,0.00,,OVC,0.14,216.00,VWS V15.00,2013-10-18 16:45:00,
2013-10-18 11:47:00,41.1,37.2,29.91,NNW,329,0.0,0.0,86,0.00,,OVC,0.14,213.00,VWS V14.01,2013-10-18 16:47:00,
2013-10-18 11:50:00,41.4,37.8,29.91,SW,229,1.0,6.0,87,0.00,,OVC,0.14,204.00,VWS V15.00,2013-10-18 16:50:00,
2013-10-18 11:52:00,41.4,37.5,29.91,SW,229,3.0,3.0,86,0.00,,OVC,0.14,204.00,VWS V14.01,2013-10-18 16:52:00,
2013-10-18 11:55:00,41.1,36.0,29.91,ENE,62,4.0,11.0,82,0.00,,OVC,0.14,236.00,VWS V15.00,2013-10-18 16:55:00,
2013-10-18 11:57:00,41.1,35.7,29.91,North,355,3.0,4.0,81,0.00,,OVC,0.14,250.00,VWS V14.01,2013-10-18 16:57:00,
2013-10-18 12:00:00,41.1,36.0,29.91,NW,315,3.0,8.0,82,0.00,,OVC,0.14,192.00,VWS V15.00,2013-10-18 17:00:00,
2013-10-18 12:02:00,41.1,36.0,29.91,NNE,13,8.0,8.0,82,0.00,,OVC,0.14,192.00,VWS V14.01,2013-10-18 17:02:00,
2013-10-18 12:05:00,40.6,35.5,29.91,North,5,2.0,9.0,82,0.00,,OVC,0.14,179.00,VWS V15.00,2013-10-18 17:05:00,
2013-10-18 12:07:00,40.6,35.8,29.91,North,360,10.0,10.0,83,0.00,,OVC,0.14,174.00,VWS V14.01,2013-10-18 17:07:00,
2013-10-18 12:10:00,40.4,36.0,29.91,NW,319,1.0,12.0,84,0.00,,OVC,0.14,165.00,VWS V15.00,2013-10-18 17:10:00,
2013-10-18 12:12:00,40.3,36.2,29.91,WNW,289,2.0,5.0,85,0.00,,OVC,0.14,163.00,VWS V14.01,2013-10-18 17:12:00,
2013-10-18 12:15:00,40.2,36.1,29.91,North,9,3.0,12.0,85,0.00,,OVC,0.14,172.00,VWS V15.00,2013-10-18 17:15:00,
2013-10-18 12:17:00,40.2,36.1,29.91,WNW,288,3.0,4.0,85,0.00,,OVC,0.14,183.00,VWS V14.01,2013-10-18 17:17:00,
2013-10-18 12:20:00,40.1,36.0,29.91,NNW,342,4.0,6.0,85,0.00,,OVC,0.14,243.00,VWS V15.00,2013-10-18 17:20:00,
2013-10-18 12:22:00,40.1,36.0,29.91,NNW,338,1.0,4.0,85,0.00,,OVC,0.14,255.00,VWS V14.01,2013-10-18 17:22:00,
2013-10-18 12:25:00,40.2,35.8,29.91,NW,306,0.0,7.0,84,0.00,,OVC,0.14,397.00,VWS V15.00,2013-10-18 17:25:00,
2013-10-18 12:27:00,40.3,35.9,29.91,NW,306,1.0,1.0,84,0.00,,OVC,0.14,410.00,VWS V14.01,2013-10-18 17:27:00,
2013-10-18 12:30:00,40.5,35.8,29.91,NNW,342,1.0,5.0,83,0.00,,OVC,0.14,397.00,VWS V15.00,2013-10-18 17:30:00,
2013-10-18 12:32:00,40.7,36.2,29.91,NNW,342,2.0,5.0,84,0.00,,OVC,0.14,367.00,VWS V14.01,2013-10-18 17:32:00,
2013-10-18 12:35:00,41.2,36.7,29.91,NNW,342,0.0,5.0,84,0.00,,OVC,0.14,448.00,VWS V15.00,2013-10-18 17:35:00,
2013-10-18 12:36:00,41.1,36.6,29.91,NNW,342,2.0,5.0,84,0.00,,OVC,0.14,527.00,VWS V14.01,2013-10-18 17:36:00,
2013-10-18 12:40:00,41.5,36.7,29.90,NNW,336,0.0,3.0,83,0.00,,OVC,0.14,475.00,VWS V15.00,2013-10-18 17:40:00,
2013-10-18 12:41:00,41.4,36.3,29.90,NNW,336,0.0,3.0,82,0.00,,OVC,0.14,475.00,VWS V14.01,2013-10-18 17:41:00,
2013-10-18 12:45:00,42.4,37.6,29.90,NNW,346,0.0,4.0,83,0.00,,OVC,0.14,362.00,VWS V15.00,2013-10-18 17:45:00,
2013-10-18 12:46:00,42.3,37.5,29.90,NNW,346,0.0,4.0,83,0.00,,OVC,0.14,362.00,VWS V14.01,2013-10-18 17:46:00,
2013-10-18 12:50:00,42.2,36.8,29.90,ENE,71,3.0,4.0,81,0.00,,OVC,0.14,142.00,VWS V15.00,2013-10-18 17:50:00,
2013-10-18 12:51:00,42.2,36.8,29.90,ENE,71,4.0,4.0,81,0.00,,OVC,0.14,142.00,VWS V14.01,2013-10-18 17:51:00,
2013-10-18 12:55:00,41.8,37.6,29.90,ENE,64,0.0,3.0,85,0.00,,OVC,0.14,121.00,VWS V15.00,2013-10-18 17:55:00,
2013-10-18 12:56:00,41.8,37.6,29.90,ENE,64,0.0,3.0,85,0.00,,OVC,0.14,121.00,VWS V14.01,2013-10-18 17:56:00,
2013-10-18 13:00:00,41.1,37.2,29.90,NE,34,0.0,3.0,86,0.00,,OVC,0.14,190.00,VWS V15.00,2013-10-18 18:00:00,
2013-10-18 13:01:00,41.1,37.2,29.90,NE,34,0.0,3.0,86,0.00,,OVC,0.14,190.00,VWS V14.01,2013-10-18 18:01:00,
2013-10-18 13:05:00,41.5,37.3,29.90,ENE,57,0.0,7.0,85,0.00,,OVC,0.14,100.00,VWS V15.00,2013-10-18 18:05:00,
2013-10-18 13:06:00,41.5,37.3,29.90,ENE,57,0.0,7.0,85,0.00,,OVC,0.14,100.00,VWS V14.01,2013-10-18 18:06:00,
2013-10-18 13:10:00,42.7,37.9,29.90,NE,49,0.0,5.0,83,0.00,,OVC,0.14,773.00,VWS V15.00,2013-10-18 18:10:00,
2013-10-18 13:11:00,42.7,37.9,29.90,NE,49,0.0,5.0,83,0.00,,OVC,0.14,773.00,VWS V14.01,2013-10-18 18:11:00,
2013-10-18 13:15:00,43.6,36.5,29.89,West,274,2.0,8.0,76,0.00,,OVC,0.14,793.00,VWS V15.00,2013-10-18 18:15:00,
2013-10-18 13:16:00,43.6,36.5,29.89,West,274,1.0,2.0,76,0.00,,OVC,0.14,793.00,VWS V14.01,2013-10-18 18:16:00,
2013-10-18 13:20:00,43.8,35.7,29.90,North,360,0.0,13.0,73,0.00,,OVC,0.14,139.00,VWS V15.00,2013-10-18 18:20:00,
2013-10-18 13:21:00,43.8,35.7,29.90,North,5,4.0,4.0,73,0.00,,OVC,0.14,139.00,VWS V14.01,2013-10-18 18:21:00,
2013-10-18 13:25:00,44.0,35.2,29.90,NW,317,0.0,10.0,71,0.00,,OVC,0.14,178.00,VWS V15.00,2013-10-18 18:25:00,
2013-10-18 13:26:00,44.0,35.2,29.89,NW,317,0.0,0.0,71,0.00,,OVC,0.14,178.00,VWS V14.01,2013-10-18 18:26:00,
2013-10-18 13:30:00,43.4,34.6,29.89,North,5,1.0,6.0,71,0.00,,OVC,0.14,137.00,VWS V15.00,2013-10-18 18:30:00,
2013-10-18 13:31:00,43.4,34.6,29.89,North,5,0.0,1.0,71,0.00,,OVC,0.14,141.00,VWS V14.01,2013-10-18 18:31:00,
2013-10-18 13:35:00,43.2,34.8,29.89,NW,320,3.0,7.0,72,0.00,,OVC,0.14,188.00,VWS V15.00,2013-10-18 18:35:00,
2013-10-18 13:36:00,43.3,35.2,29.89,North,355,6.0,7.0,73,0.00,,OVC,0.14,188.00,VWS V14.01,2013-10-18 18:36:00,
2013-10-18 13:40:00,43.3,35.2,29.89,North,355,9.0,9.0,73,0.00,,OVC,0.14,127.00,VWS V15.00,2013-10-18 18:40:00,
2013-10-18 13:41:00,43.3,33.5,29.89,NNE,14,7.0,9.0,68,0.00,,OVC,0.14,127.00,VWS V14.01,2013-10-18 18:41:00,
2013-10-18 13:45:00,42.9,33.1,29.90,North,350,4.0,9.0,68,0.00,,OVC,0.14,72.00,VWS V15.00,2013-10-18 18:45:00,
2013-10-18 13:46:00,42.8,33.0,29.89,NNE,13,2.0,4.0,68,0.00,,OVC,0.14,95.00,VWS V14.01,2013-10-18 18:46:00,
2013-10-18 13:50:00,43.0,33.2,29.89,North,355,0.0,6.0,68,0.00,,OVC,0.14,146.00,VWS V15.00,2013-10-18 18:50:00,
2013-10-18 13:52:00,43.1,33.3,29.89,North,355,0.0,0.0,68,0.00,,OVC,0.14,146.00,VWS V14.01,2013-10-18 18:52:00,
2013-10-18 13:55:00,44.3,33.7,29.89,North,350,0.0,5.0,66,0.00,,OVC,0.14,717.00,VWS V15.00,2013-10-18 18:55:00,
2013-10-18 13:57:00,44.4,33.8,29.89,NNW,343,2.0,2.0,66,0.00,,OVC,0.14,223.00,VWS V14.01,2013-10-18 18:57:00,
2013-10-18 14:00:00,44.3,32.5,29.89,NW,317,1.0,7.0,63,0.00,,OVC,0.14,216.00,VWS V15.00,2013-10-18 19:00:00,
2013-10-18 14:02:00,44.2,32.4,29.89,NW,315,2.0,2.0,63,0.00,,OVC,0.14,216.00,VWS V14.01,2013-10-18 19:02:00,
2013-10-18 14:05:00,44.1,32.3,29.89,WNW,285,2.0,6.0,63,0.00,,OVC,0.14,192.00,VWS V15.00,2013-10-18 19:05:00,
2013-10-18 14:07:00,44.0,32.6,29.89,WNW,288,3.0,3.0,64,0.00,,OVC,0.14,192.00,VWS V14.01,2013-10-18 19:07:00,
2013-10-18 14:10:00,44.0,33.4,29.89,West,281,3.0,6.0,66,0.00,,OVC,0.14,155.00,VWS V15.00,2013-10-18 19:10:00,
2013-10-18 14:12:00,44.0,33.4,29.89,WNW,284,3.0,3.0,66,0.00,,OVC,0.14,148.00,VWS V14.01,2013-10-18 19:12:00,
2013-10-18 14:15:00,44.0,33.0,29.89,West,276,4.0,7.0,65,0.00,,OVC,0.14,100.00,VWS V15.00,2013-10-18 19:15:00,
2013-10-18 14:17:00,43.9,32.9,29.89,WNW,292,2.0,4.0,65,0.00,,OVC,0.14,100.00,VWS V14.01,2013-10-18 19:17:00,
2013-10-18 14:20:00,43.8,32.8,29.89,NW,319,3.0,7.0,65,0.00,,OVC,0.14,589.00,VWS V15.00,2013-10-18 19:20:00,
2013-10-18 14:22:00,43.8,32.4,29.89,NW,313,4.0,6.0,64,0.00,,OVC,0.14,584.00,VWS V14.01,2013-10-18 19:22:00,
2013-10-18 14:25:00,44.4,33.8,29.89,West,275,5.0,9.0,66,0.00,,OVC,0.14,599.00,VWS V15.00,2013-10-18 19:25:00,
2013-10-18 14:27:00,44.5,33.9,29.89,WNW,288,5.0,5.0,66,0.00,,OVC,0.14,598.00,VWS V14.01,2013-10-18 19:27:00,
2013-10-18 14:30:00,44.9,33.5,29.89,NW,311,2.0,10.0,64,0.00,,OVC,0.14,606.00,VWS V15.00,2013-10-18 19:30:00,
2013-10-18 14:32:00,45.0,33.6,29.88,NW,311,0.0,2.0,64,0.00,,OVC,0.14,606.00,VWS V14.01,2013-10-18 19:32:00,
2013-10-18 14:35:00,45.1,32.5,29.88,West,279,3.0,6.0,61,0.00,,OVC,0.14,612.00,VWS V15.00,2013-10-18 19:35:00,
2013-10-18 14:37:00,45.2,33.0,29.88,NNE,28,5.0,5.0,62,0.00,,OVC,0.14,606.00,VWS V14.01,2013-10-18 19:37:00,
2013-10-18 14:40:00,46.0,32.1,29.88,NW,325,3.0,7.0,58,0.00,,OVC,0.14,603.00,VWS V15.00,2013-10-18 19:40:00,
2013-10-18 14:42:00,46.0,32.1,29.88,West,261,4.0,4.0,58,0.00,,OVC,0.14,621.00,VWS V14.01,2013-10-18 19:42:00,
2013-10-18 14:45:00,46.0,32.9,29.88,NW,311,2.0,8.0,60,0.00,,OVC,0.14,698.00,VWS V15.00,2013-10-18 19:45:00,
2013-10-18 14:47:00,46.1,32.2,29.88,WNW,292,2.0,5.0,58,0.00,,OVC,0.14,698.00,VWS V14.01,2013-10-18 19:47:00,
2013-10-18 14:50:00,46.2,33.1,29.88,SE,134,3.0,7.0,60,0.00,,OVC,0.14,728.00,VWS V15.00,2013-10-18 19:50:00,
2013-10-18 14:52:00,46.1,32.2,29.88,NW,325,6.0,6.0,58,0.00,,OVC,0.14,113.00,VWS V14.01,2013-10-18 19:52:00,
2013-10-18 14:55:00,45.4,32.3,29.88,NNW,331,4.0,8.0,60,0.00,,OVC,0.14,70.00,VWS V15.00,2013-10-18 19:55:00,
2013-10-18 14:57:00,45.2,32.6,29.88,NNW,335,0.0,4.0,61,0.00,,OVC,0.14,62.00,VWS V14.01,2013-10-18 19:57:00,
2013-10-18 15:00:00,44.6,32.8,29.88,North,355,1.0,6.0,63,0.00,,OVC,0.14,46.00,VWS V15.00,2013-10-18 20:00:00,
2013-10-18 15:02:00,44.4,31.8,29.89,NNW,340,5.0,5.0,61,0.00,,OVC,0.14,44.00,VWS V14.01,2013-10-18 20:02:00,
2013-10-18 15:05:00,44.0,32.2,29.88,NNW,332,3.0,5.0,63,0.00,,OVC,0.14,51.00,VWS V15.00,2013-10-18 20:05:00,
2013-10-18 15:07:00,44.1,31.9,29.88,NW,326,2.0,3.0,62,0.00,,OVC,0.14,510.00,VWS V14.01,2013-10-18 20:07:00,
2013-10-18 15:10:00,44.7,32.9,29.88,NNW,331,0.0,6.0,63,0.00,,OVC,0.14,508.00,VWS V15.00,2013-10-18 20:10:00,
2013-10-18 15:12:00,44.9,33.1,29.88,NW,304,3.0,3.0,63,0.00,,OVC,0.14,510.00,VWS V14.01,2013-10-18 20:12:00,
2013-10-18 15:15:00,45.8,31.9,29.88,NW,311,1.0,11.0,58,0.00,,OVC,0.14,536.00,VWS V15.00,2013-10-18 20:15:00,
2013-10-18 15:17:00,45.9,32.4,29.88,NNW,328,1.0,4.0,59,0.00,,OVC,0.14,541.00,VWS V14.01,2013-10-18 20:17:00,
2013-10-18 15:20:00,46.1,30.4,29.88,West,277,10.0,12.0,54,0.00,,OVC,0.14,529.00,VWS V15.00,2013-10-18 20:20:00,
2013-10-18 15:22:00,46.0,30.8,29.88,NW,319,3.0,10.0,55,0.00,,OVC,0.14,520.00,VWS V14.01,2013-10-18 20:22:00,
2013-10-18 15:25:00,45.7,30.5,29.87,WNW,292,5.0,11.0,55,0.00,,OVC,0.14,554.00,VWS V15.00,2013-10-18 20:25:00,
2013-10-18 15:27:00,45.7,31.8,29.87,West,275,7.0,7.0,58,0.00,,OVC,0.14,570.00,VWS V14.01,2013-10-18 20:27:00,
2013-10-18 15:30:00,46.1,32.2,29.87,NNE,17,4.0,9.0,58,0.00,,OVC,0.14,548.00,VWS V15.00,2013-10-18 20:30:00,
2013-10-18 15:32:00,46.6,32.2,29.87,North,5,2.0,4.0,57,0.00,,OVC,0.14,548.00,VWS V14.01,2013-10-18 20:32:00,
2013-10-18 15:35:00,47.3,32.8,29.87,NE,51,2.0,9.0,57,0.00,,OVC,0.14,552.00,VWS V15.00,2013-10-18 20:35:00,
2013-10-18 15:37:00,47.7,32.3,29.87,NNW,328,0.0,3.0,55,0.00,,OVC,0.14,548.00,VWS V14.01,2013-10-18 20:37:00,
2013-10-18 15:40:00,47.8,32.4,29.87,North,9,5.0,7.0,55,0.00,,OVC,0.14,538.00,VWS V15.00,2013-10-18 20:40:00,
2013-10-18 15:42:00,47.7,31.9,29.87,NNE,18,2.0,6.0,54,0.00,,OVC,0.14,529.00,VWS V14.01,2013-10-18 20:42:00,
2013-10-18 15:45:00,47.3,31.0,29.88,NNE,20,4.0,8.0,53,0.00,,OVC,0.14,504.00,VWS V15.00,2013-10-18 20:45:00,
2013-10-18 15:47:00,47.3,32.4,29.88,NNE,21,0.0,4.0,56,0.00,,OVC,0.14,492.00,VWS V14.01,2013-10-18 20:47:00,
2013-10-18 15:50:00,47.2,30.0,29.87,NNW,341,0.0,5.0,51,0.00,,OVC,0.14,452.00,VWS V15.00,2013-10-18 20:50:00,
2013-10-18 15:52:00,46.9,30.7,29.87,NNW,341,0.0,0.0,53,0.00,,OVC,0.14,446.00,VWS V14.01,2013-10-18 20:52:00,
2013-10-18 15:55:00,47.6,32.7,29.87,NNW,344,0.0,4.0,56,0.00,,OVC,0.14,422.00,VWS V15.00,2013-10-18 20:55:00,
2013-10-18 15:58:00,47.9,33.0,29.87,NNW,344,2.0,2.0,56,0.00,,OVC,0.14,408.00,VWS V14.01,2013-10-18 20:58:00,
2013-10-18 16:00:00,47.7,31.4,29.87,NNE,17,3.0,5.0,53,0.00,,OVC,0.14,394.00,VWS V15.00,2013-10-18 21:00:00,
2013-10-18 16:03:00,47.6,31.8,29.87,NNE,28,0.0,9.0,54,0.00,,OVC,0.14,387.00,VWS V14.01,2013-10-18 21:03:00,
2013-10-18 16:05:00,47.3,31.5,29.87,ENE,70,0.0,9.0,54,0.00,,OVC,0.14,381.00,VWS V15.00,2013-10-18 21:05:00,
2013-10-18 16:08:00,47.4,32.1,29.87,NNW,328,2.0,7.0,55,0.00,,OVC,0.14,378.00,VWS V14.01,2013-10-18 21:08:00,
2013-10-18 16:10:00,47.5,31.2,29.87,NE,53,5.0,7.0,53,0.00,,OVC,0.14,376.00,VWS V15.00,2013-10-18 21:10:00,
2013-10-18 16:13:00,47.4,31.6,29.87,NNE,18,5.0,5.0,54,0.00,,OVC,0.14,373.00,VWS V14.01,2013-10-18 21:13:00,
2013-10-18 16:15:00,47.4,31.1,29.87,NW,324,0.0,5.0,53,0.00,,OVC,0.14,352.00,VWS V15.00,2013-10-18 21:15:00,
2013-10-18 16:18:00,47.3,32.0,29.87,NW,324,2.0,2.0,55,0.00,,OVC,0.14,353.00,VWS V14.01,2013-10-18 21:18:00,
2013-10-18 16:20:00,47.0,30.8,29.87,NNW,329,1.0,4.0,53,0.00,,OVC,0.14,302.00,VWS V15.00,2013-10-18 21:20:00,
2013-10-18 16:23:00,46.8,32.4,29.87,NNW,333,3.0,3.0,57,0.00,,OVC,0.14,206.00,VWS V14.01,2013-10-18 21:23:00,
2013-10-18 16:25:00,46.3,28.7,29.87,NE,45,3.0,5.0,50,0.00,,OVC,0.14,58.00,VWS V15.00,2013-10-18 21:25:00,
2013-10-18 16:28:00,46.0,30.3,29.87,ENE,58,4.0,5.0,54,0.00,,OVC,0.14,62.00,VWS V14.01,2013-10-18 21:28:00,
2013-10-18 16:30:00,45.4,28.8,29.87,NE,55,0.0,5.0,52,0.00,,OVC,0.14,56.00,VWS V15.00,2013-10-18 21:30:00,
2013-10-18 16:33:00,45.2,30.9,29.87,NE,55,0.0,0.0,57,0.00,,OVC,0.14,56.00,VWS V14.01,2013-10-18 21:33:00,
2013-10-18 16:35:00,44.7,29.5,29.87,NE,45,0.0,5.0,55,0.00,,OVC,0.14,58.00,VWS V15.00,2013-10-18 21:35:00,
2013-10-18 16:38:00,44.6,30.8,29.87,NE,45,0.0,0.0,58,0.00,,OVC,0.14,65.00,VWS V14.01,2013-10-18 21:38:00,
2013-10-18 16:40:00,44.3,31.7,29.87,NE,45,0.0,0.0,61,0.00,,OVC,0.14,63.00,VWS V15.00,2013-10-18 21:40:00,
2013-10-18 16:43:00,44.4,31.8,29.87,NNW,334,2.0,3.0,61,0.00,,OVC,0.14,62.00,VWS V14.01,2013-10-18 21:43:00,
2013-10-18 16:45:00,44.6,30.3,29.88,NNW,334,0.0,3.0,57,0.00,,OVC,0.14,62.00,VWS V15.00,2013-10-18 21:45:00,
2013-10-18 16:48:00,44.7,31.3,29.88,NNW,334,0.0,1.0,59,0.00,,OVC,0.14,58.00,VWS V14.01,2013-10-18 21:48:00,
2013-10-18 16:50:00,44.8,32.2,29.88,NNW,334,0.0,1.0,61,0.00,,OVC,0.14,54.00,VWS V15.00,2013-10-18 21:50:00,
2013-10-18 16:53:00,44.7,32.5,29.88,NNW,334,0.0,0.0,62,0.00,,OVC,0.14,49.00,VWS V14.01,2013-10-18 21:53:00,
2013-10-18 16:55:00,44.7,30.0,29.88,NNW,334,0.0,2.0,56,0.00,,OVC,0.14,42.00,VWS V15.00,2013-10-18 21:55:00,
2013-10-18 16:58:00,44.7,31.3,29.88,NNW,334,3.0,3.0,59,0.00,,OVC,0.14,35.00,VWS V14.01,2013-10-18 21:58:00,
2013-10-18 17:00:00,44.7,32.1,29.88,NNW,334,1.0,3.0,61,0.00,,OVC,0.14,30.00,VWS V15.00,2013-10-18 22:00:00,
2013-10-18 17:03:00,44.7,32.9,29.88,NNW,334,2.0,2.0,63,0.00,,OVC,0.14,28.00,VWS V14.01,2013-10-18 22:03:00,
2013-10-18 17:05:00,44.7,32.1,29.88,NNW,334,0.0,3.0,61,0.00,,OVC,0.14,26.00,VWS V15.00,2013-10-18 22:05:00,
2013-10-18 17:08:00,44.6,32.4,29.88,NNW,334,3.0,3.0,62,0.00,,OVC,0.14,26.00,VWS V14.01,2013-10-18 22:08:00,
2013-10-18 17:10:00,44.4,31.8,29.88,NNW,334,3.0,3.0,61,0.00,,OVC,0.14,26.00,VWS V15.00,2013-10-18 22:10:00,
2013-10-18 17:13:00,44.3,31.3,29.88,NW,309,2.0,4.0,60,0.00,,OVC,0.14,26.00,VWS V14.01,2013-10-18 22:13:00,
2013-10-18 17:15:00,44.3,31.3,29.88,WNW,296,3.0,4.0,60,0.00,,OVC,0.14,25.00,VWS V15.00,2013-10-18 22:15:00,
2013-10-18 17:18:00,44.1,31.9,29.89,West,277,3.0,4.0,62,0.00,,OVC,0.14,21.00,VWS V14.01,2013-10-18 22:18:00,
2013-10-18 17:20:00,44.1,31.5,29.89,West,268,6.0,11.0,61,0.00,,OVC,0.14,19.00,VWS V15.00,2013-10-18 22:20:00,
2013-10-18 17:24:00,44.4,31.8,29.89,WSW,254,2.0,8.0,61,0.00,,OVC,0.14,21.00,VWS V14.01,2013-10-18 22:24:00,
2013-10-18 17:25:00,44.4,31.8,29.89,West,277,5.0,8.0,61,0.00,,OVC,0.14,19.00,VWS V15.00,2013-10-18 22:25:00,
2013-10-18 17:29:00,44.3,31.7,29.89,West,277,3.0,5.0,61,0.00,,OVC,0.14,18.00,VWS V14.01,2013-10-18 22:29:00,
2013-10-18 17:30:00,44.2,32.4,29.89,West,277,3.0,5.0,63,0.00,,OVC,0.14,18.00,VWS V15.00,2013-10-18 22:30:00,
2013-10-18 17:34:00,44.1,31.5,29.89,West,273,1.0,4.0,61,0.00,,OVC,0.14,18.00,VWS V14.01,2013-10-18 22:34:00,
2013-10-18 17:35:00,44.0,32.2,29.89,West,273,0.0,4.0,63,0.00,,OVC,0.14,18.00,VWS V15.00,2013-10-18 22:35:00,
2013-10-18 17:39:00,43.8,32.0,29.89,West,273,0.0,5.0,63,0.00,,OVC,0.14,18.00,VWS V14.01,2013-10-18 22:39:00,
2013-10-18 17:40:00,43.6,33.0,29.90,West,273,3.0,5.0,66,0.00,,OVC,0.14,18.00,VWS V15.00,2013-10-18 22:40:00,
2013-10-18 17:44:00,43.5,31.8,29.89,West,273,4.0,4.0,63,0.00,,OVC,0.14,14.00,VWS V14.01,2013-10-18 22:44:00,
2013-10-18 17:45:00,43.6,31.9,29.89,West,273,3.0,4.0,63,0.00,,OVC,0.14,12.00,VWS V15.00,2013-10-18 22:45:00,
2013-10-18 17:49:00,43.5,31.4,29.89,West,273,0.0,4.0,62,0.00,,OVC,0.14,11.00,VWS V14.01,2013-10-18 22:49:00,
2013-10-18 17:50:00,43.6,31.5,29.89,West,273,0.0,4.0,62,0.00,,OVC,0.14,9.00,VWS V15.00,2013-10-18 22:50:00,
2013-10-18 17:54:00,43.3,33.5,29.89,West,273,0.0,0.0,68,0.00,,OVC,0.14,7.00,VWS V14.01,2013-10-18 22:54:00,
2013-10-18 17:55:00,42.8,34.8,29.89,West,273,0.0,0.0,73,0.00,,OVC,0.14,5.00,VWS V15.00,2013-10-18 22:55:00,
2013-10-18 17:59:00,42.1,34.8,29.89,West,273,0.0,0.0,75,0.00,,OVC,0.14,5.00,VWS V14.01,2013-10-18 22:59:00,
2013-10-18 18:00:00,41.8,34.1,29.89,West,273,0.0,0.0,74,0.00,,OVC,0.14,0.00,VWS V15.00,2013-10-18 23:00:00,
2013-10-18 18:04:00,41.6,33.9,29.89,West,273,0.0,2.0,74,0.00,,OVC,0.14,0.00,VWS V14.01,2013-10-18 23:04:00,
2013-10-18 18:05:00,41.5,34.8,29.89,West,273,0.0,2.0,77,0.00,,OVC,0.14,0.00,VWS V15.00,2013-10-18 23:05:00,
2013-10-18 18:09:00,41.4,35.4,29.89,West,273,0.0,0.0,79,0.00,,OVC,0.14,0.00,VWS V14.01,2013-10-18 23:09:00,
2013-10-18 18:10:00,41.3,35.0,29.89,West,273,0.0,0.0,78,0.00,,OVC,0.14,0.00,VWS V15.00,2013-10-18 23:10:00,
2013-10-18 18:14:00,41.2,35.2,29.89,West,273,0.0,0.0,79,0.00,,OVC,0.14,0.00,VWS V14.01,2013-10-18 23:14:00,
2013-10-18 18:15:00,41.1,35.1,29.89,West,273,0.0,0.0,79,0.00,,OVC,0.14,0.00,VWS V15.00,2013-10-18 23:15:00,
2013-10-18 18:19:00,41.0,35.3,29.89,West,273,0.0,0.0,80,0.00,,OVC,0.14,0.00,VWS V14.01,2013-10-18 23:19:00,
2013-10-18 18:20:00,40.9,35.5,29.89,West,273,0.0,0.0,81,0.00,,OVC,0.14,0.00,VWS V15.00,2013-10-18 23:20:00,
2013-10-18 18:24:00,40.6,35.5,29.89,West,273,0.0,0.0,82,0.00,,OVC,0.14,0.00,VWS V14.01,2013-10-18 23:24:00,
2013-10-18 18:25:00,40.4,35.3,29.89,West,273,0.0,0.0,82,0.00,,OVC,0.14,0.00,VWS V15.00,2013-10-18 23:25:00,
2013-10-18 18:29:00,40.2,34.8,29.89,West,273,0.0,0.0,81,0.00,,OVC,0.14,0.00,VWS V14.01,2013-10-18 23:29:00,
2013-10-18 18:30:00,40.1,34.4,29.89,West,273,0.0,0.0,80,0.00,,OVC,0.14,0.00,VWS V15.00,2013-10-18 23:30:00,
2013-10-18 18:34:00,40.1,34.4,29.89,West,273,0.0,0.0,80,0.00,,OVC,0.14,0.00,VWS V14.01,2013-10-18 23:34:00,
2013-10-18 18:35:00,40.0,33.7,29.89,West,273,0.0,0.0,78,0.00,,OVC,0.14,0.00,VWS V15.00,2013-10-18 23:35:00,
2013-10-18 18:39:00,39.9,34.5,29.89,West,273,0.0,0.0,81,0.00,,OVC,0.14,0.00,VWS V14.01,2013-10-18 23:39:00,
2013-10-18 18:40:00,39.7,34.4,29.89,West,273,0.0,0.0,81,0.00,,OVC,0.14,0.00,VWS V15.00,2013-10-18 23:40:00,
2013-10-18 18:44:00,39.6,34.6,29.89,West,273,0.0,0.0,82,0.00,,OVC,0.14,0.00,VWS V14.01,2013-10-18 23:44:00,
2013-10-18 18:45:00,39.5,34.5,29.89,West,273,0.0,0.0,82,0.00,,OVC,0.14,0.00,VWS V15.00,2013-10-18 23:45:00,
2013-10-18 18:49:00,39.4,34.4,29.89,West,273,0.0,0.0,82,0.00,,OVC,0.14,0.00,VWS V14.01,2013-10-18 23:49:00,
2013-10-18 18:50:00,39.3,34.3,29.89,West,273,0.0,0.0,82,0.00,,OVC,0.14,0.00,VWS V15.00,2013-10-18 23:50:00,
2013-10-18 18:54:00,39.2,34.2,29.89,West,273,0.0,0.0,82,0.00,,OVC,0.14,0.00,VWS V14.01,2013-10-18 23:54:00,
2013-10-18 18:59:00,38.8,34.1,29.89,West,273,3.0,4.0,83,0.00,,OVC,0.14,0.00,VWS V14.01,2013-10-18 23:59:00,
2013-10-18 19:00:00,38.8,34.1,29.89,West,273,1.0,4.0,83,0.00,,OVC,0.14,0.00,VWS V15.00,2013-10-19 00:00:00,
2013-10-18 19:04:00,39.0,34.0,29.89,West,273,4.0,4.0,82,0.00,,OVC,0.14,0.00,VWS V14.01,2013-10-19 00:04:00,
2013-10-18 19:05:00,39.1,33.8,29.89,West,272,3.0,4.0,81,0.00,,OVC,0.14,0.00,VWS V15.00,2013-10-19 00:05:00,
2013-10-18 19:09:00,39.4,33.4,29.89,West,272,2.0,3.0,79,0.00,,OVC,0.14,0.00,VWS V14.01,2013-10-19 00:09:00,
2013-10-18 19:10:00,39.6,33.6,29.89,West,272,2.0,3.0,79,0.00,,OVC,0.14,0.00,VWS V15.00,2013-10-19 00:10:00,
2013-10-18 19:14:00,39.7,33.7,29.89,West,272,0.0,2.0,79,0.00,,OVC,0.14,0.00,VWS V14.01,2013-10-19 00:14:00,
2013-10-18 19:15:00,39.7,33.7,29.89,West,272,0.0,2.0,79,0.00,,OVC,0.14,0.00,VWS V15.00,2013-10-19 00:15:00,
2013-10-18 19:19:00,39.3,34.0,29.89,West,272,0.0,0.0,81,0.00,,OVC,0.14,0.00,VWS V14.01,2013-10-19 00:19:00,
2013-10-18 19:20:00,39.1,34.1,29.89,West,272,0.0,0.0,82,0.00,,OVC,0.14,0.00,VWS V15.00,2013-10-19 00:20:00,
2013-10-18 19:24:00,38.7,34.3,29.89,West,273,0.0,0.0,84,0.00,,OVC,0.14,0.00,VWS V14.01,2013-10-19 00:24:00,
2013-10-18 19:25:00,38.5,34.4,29.89,West,272,0.0,0.0,85,0.00,,OVC,0.14,0.00,VWS V15.00,2013-10-19 00:25:00,
2013-10-18 19:30:00,38.2,34.1,29.89,West,272,0.0,0.0,85,0.00,,OVC,0.14,0.00,VWS V14.01,2013-10-19 00:30:00,
2013-10-18 19:35:00,38.9,35.7,29.89,West,271,4.0,5.0,88,0.00,,OVC,0.14,0.00,VWS V14.01,2013-10-19 00:35:00,
2013-10-18 19:40:00,40.2,36.1,29.89,West,269,3.0,5.0,85,0.00,,OVC,0.14,0.00,VWS V14.01,2013-10-19 00:40:00,
2013-10-18 19:45:00,40.8,35.4,29.89,West,259,3.0,5.0,81,0.00,,OVC,0.14,0.00,VWS V14.01,2013-10-19 00:45:00,
2013-10-18 19:50:00,40.7,34.7,29.89,WSW,256,4.0,4.0,79,0.00,,OVC,0.14,0.00,VWS V14.01,2013-10-19 00:50:00,
2013-10-18 19:55:00,40.2,33.9,29.88,WSW,256,2.0,4.0,78,0.00,,OVC,0.14,0.00,VWS V14.01,2013-10-19 00:55:00,
2013-10-18 20:00:00,39.4,33.1,29.88,WSW,256,2.0,4.0,78,0.00,,OVC,0.14,0.00,VWS V14.01,2013-10-19 01:00:00,
2013-10-18 20:05:00,39.5,34.2,29.88,WSW,257,2.0,4.0,81,0.00,,OVC,0.14,0.00,VWS V14.01,2013-10-19 01:05:00,
2013-10-18 20:10:00,39.9,34.2,29.88,WSW,242,3.0,4.0,80,0.00,,OVC,0.14,0.00,VWS V14.01,2013-10-19 01:10:00,
2013-10-18 20:15:00,40.2,34.5,29.88,WSW,244,3.0,5.0,80,0.00,,OVC,0.14,0.00,VWS V14.01,2013-10-19 01:15:00,
2013-10-18 20:20:00,40.2,34.2,29.88,WSW,244,4.0,5.0,79,0.00,,OVC,0.14,0.00,VWS V14.01,2013-10-19 01:20:00,
2013-10-18 20:25:00,40.4,34.7,29.88,WSW,244,0.0,4.0,80,0.00,,OVC,0.14,0.00,VWS V14.01,2013-10-19 01:25:00,
2013-10-18 20:30:00,39.9,34.2,29.88,WSW,245,2.0,4.0,80,0.00,,OVC,0.14,0.00,VWS V14.01,2013-10-19 01:30:00,
2013-10-18 20:35:00,40.0,34.3,29.88,WSW,245,2.0,4.0,80,0.00,,OVC,0.14,0.00,VWS V14.01,2013-10-19 01:35:00,
2013-10-18 20:40:00,39.4,34.1,29.88,WSW,245,1.0,3.0,81,0.00,,OVC,0.14,0.00,VWS V14.01,2013-10-19 01:40:00,
2013-10-18 20:45:00,38.3,33.3,29.88,WSW,245,0.0,3.0,82,0.00,,OVC,0.14,0.00,VWS V15.00,2013-10-19 01:45:00,
2013-10-18 20:46:00,38.4,33.4,29.88,WSW,245,0.0,3.0,82,0.00,,OVC,0.14,0.00,VWS V14.01,2013-10-19 01:46:00,
2013-10-18 20:50:00,37.9,33.2,29.88,WSW,245,0.0,0.0,83,0.00,,OVC,0.14,0.00,VWS V15.00,2013-10-19 01:50:00,
2013-10-18 20:51:00,37.9,33.2,29.88,WSW,245,0.0,0.0,83,0.00,,OVC,0.14,0.00,VWS V14.01,2013-10-19 01:51:00,
2013-10-18 20:55:00,37.3,33.5,29.88,WSW,245,0.0,0.0,86,0.00,,OVC,0.14,0.00,VWS V15.00,2013-10-19 01:55:00,
2013-10-18 20:56:00,37.3,33.2,29.88,WSW,245,0.0,0.0,85,0.00,,OVC,0.14,0.00,VWS V14.01,2013-10-19 01:56:00,
2013-10-18 21:00:00,36.8,33.0,29.88,WSW,245,0.0,0.0,86,0.00,,OVC,0.14,0.00,VWS V15.00,2013-10-19 02:00:00,
2013-10-18 21:01:00,36.8,33.0,29.88,WSW,245,0.0,0.0,86,0.00,,OVC,0.14,0.00,VWS V14.01,2013-10-19 02:01:00,
2013-10-18 21:05:00,36.6,32.8,29.88,WSW,245,0.0,0.0,86,0.00,,OVC,0.14,0.00,VWS V15.00,2013-10-19 02:05:00,
2013-10-18 21:06:00,36.6,32.8,29.88,WSW,245,0.0,0.0,86,0.00,,OVC,0.14,0.00,VWS V14.01,2013-10-19 02:06:00,
2013-10-18 21:10:00,36.6,32.8,29.88,WSW,245,0.0,2.0,86,0.00,,OVC,0.14,0.00,VWS V15.00,2013-10-19 02:10:00,
2013-10-18 21:11:00,36.6,32.8,29.88,WSW,245,0.0,2.0,86,0.00,,OVC,0.14,0.00,VWS V14.01,2013-10-19 02:11:00,
2013-10-18 21:15:00,36.9,32.8,29.88,WSW,245,0.0,0.0,85,0.00,,OVC,0.14,0.00,VWS V15.00,2013-10-19 02:15:00,
2013-10-18 21:16:00,36.9,32.8,29.88,WSW,245,0.0,0.0,85,0.00,,OVC,0.14,0.00,VWS V14.01,2013-10-19 02:16:00,
2013-10-18 21:20:00,36.6,32.8,29.88,WSW,245,0.0,0.0,86,0.00,,OVC,0.14,0.00,VWS V15.00,2013-10-19 02:20:00,
2013-10-18 21:21:00,36.6,32.8,29.88,WSW,245,0.0,0.0,86,0.00,,OVC,0.14,0.00,VWS V14.01,2013-10-19 02:21:00,
2013-10-18 21:25:00,36.4,32.9,29.88,WSW,245,0.0,0.0,87,0.00,,OVC,0.14,0.00,VWS V15.00,2013-10-19 02:25:00,
2013-10-18 21:26:00,36.4,32.9,29.88,WSW,245,0.0,0.0,87,0.00,,OVC,0.14,0.00,VWS V14.01,2013-10-19 02:26:00,
2013-10-18 21:30:00,36.2,32.7,29.88,WSW,244,0.0,0.0,87,0.00,,OVC,0.14,0.00,VWS V15.00,2013-10-19 02:30:00,
2013-10-18 21:31:00,36.2,32.7,29.88,WSW,244,0.0,0.0,87,0.00,,OVC,0.14,0.00,VWS V14.01,2013-10-19 02:31:00,
2013-10-18 21:35:00,36.1,32.6,29.88,WSW,245,0.0,0.0,87,0.00,,OVC,0.14,0.00,VWS V15.00,2013-10-19 02:35:00,
2013-10-18 21:36:00,36.1,32.6,29.88,WSW,244,0.0,0.0,87,0.00,,OVC,0.14,0.00,VWS V14.01,2013-10-19 02:36:00,
2013-10-18 21:40:00,36.3,32.5,29.87,WSW,245,0.0,0.0,86,0.00,,OVC,0.14,0.00,VWS V15.00,2013-10-19 02:40:00,
2013-10-18 21:41:00,36.3,32.5,29.87,WSW,245,0.0,0.0,86,0.00,,OVC,0.14,0.00,VWS V14.01,2013-10-19 02:41:00,
2013-10-18 21:45:00,36.0,32.5,29.87,WSW,245,0.0,0.0,87,0.00,,OVC,0.14,0.00,VWS V15.00,2013-10-19 02:45:00,
2013-10-18 21:46:00,36.0,32.5,29.87,WSW,245,0.0,0.0,87,0.00,,OVC,0.14,0.00,VWS V14.01,2013-10-19 02:46:00,
2013-10-18 21:50:00,35.7,32.2,29.87,WSW,245,0.0,0.0,87,0.00,,OVC,0.14,0.00,VWS V15.00,2013-10-19 02:50:00,
2013-10-18 21:51:00,35.7,32.2,29.87,WSW,245,0.0,0.0,87,0.00,,OVC,0.14,0.00,VWS V14.01,2013-10-19 02:51:00,
2013-10-18 21:55:00,35.5,32.3,29.87,WSW,245,0.0,0.0,88,0.00,,OVC,0.14,0.00,VWS V15.00,2013-10-19 02:55:00,
2013-10-18 21:56:00,35.5,32.3,29.87,WSW,245,0.0,0.0,88,0.00,,OVC,0.14,0.00,VWS V14.01,2013-10-19 02:56:00,
2013-10-18 22:00:00,35.3,32.4,29.87,WSW,245,0.0,0.0,89,0.00,,OVC,0.14,0.00,VWS V15.00,2013-10-19 03:00:00,
2013-10-18 22:01:00,35.3,32.4,29.87,WSW,245,0.0,0.0,89,0.00,,OVC,0.14,0.00,VWS V14.01,2013-10-19 03:01:00,
2013-10-18 22:06:00,35.3,32.4,29.87,WSW,245,0.0,0.0,89,0.00,,OVC,0.14,0.00,VWS V14.01,2013-10-19 03:06:00,
2013-10-18 22:10:00,35.6,32.7,29.87,WSW,245,0.0,0.0,89,0.00,,OVC,0.14,0.00,VWS V15.00,2013-10-19 03:10:00,
2013-10-18 22:11:00,35.6,32.7,29.87,WSW,245,0.0,0.0,89,0.00,,OVC,0.14,0.00,VWS V14.01,2013-10-19 03:11:00,
2013-10-18 22:15:00,36.0,32.8,29.87,WSW,245,0.0,0.0,88,0.00,,OVC,0.14,0.00,VWS V15.00,2013-10-19 03:15:00,
2013-10-18 22:16:00,36.0,32.8,29.87,WSW,245,0.0,0.0,88,0.00,,OVC,0.14,0.00,VWS V14.01,2013-10-19 03:16:00,
2013-10-18 22:20:00,36.3,32.8,29.87,WSW,245,0.0,0.0,87,0.00,,OVC,0.14,0.00,VWS V15.00,2013-10-19 03:20:00,
2013-10-18 22:21:00,36.2,32.7,29.87,WSW,245,0.0,0.0,87,0.00,,OVC,0.14,0.00,VWS V14.01,2013-10-19 03:21:00,
2013-10-18 22:25:00,35.9,32.4,29.87,WSW,245,0.0,0.0,87,0.00,,OVC,0.14,0.00,VWS V15.00,2013-10-19 03:25:00,
2013-10-18 22:27:00,35.9,32.4,29.87,WSW,245,0.0,0.0,87,0.00,,OVC,0.14,0.00,VWS V14.01,2013-10-19 03:27:00,
2013-10-18 22:30:00,35.6,31.8,29.86,WSW,245,0.0,0.0,86,0.00,,OVC,0.14,0.00,VWS V15.00,2013-10-19 03:30:00,
2013-10-18 22:32:00,35.6,31.8,29.86,WSW,245,0.0,0.0,86,0.00,,OVC,0.14,0.00,VWS V14.01,2013-10-19 03:32:00,
2013-10-18 22:35:00,35.2,31.7,29.86,WSW,245,0.0,0.0,87,0.00,,OVC,0.14,0.00,VWS V15.00,2013-10-19 03:35:00,
2013-10-18 22:37:00,35.2,31.7,29.86,WSW,245,0.0,0.0,87,0.00,,OVC,0.14,0.00,VWS V14.01,2013-10-19 03:37:00,
2013-10-18 22:40:00,35.0,31.5,29.86,WSW,245,0.0,0.0,87,0.00,,OVC,0.14,0.00,VWS V15.00,2013-10-19 03:40:00,
2013-10-18 22:42:00,35.0,31.5,29.86,WSW,245,0.0,0.0,87,0.00,,OVC,0.14,0.00,VWS V14.01,2013-10-19 03:42:00,
2013-10-18 22:45:00,35.1,31.9,29.86,WSW,245,0.0,0.0,88,0.00,,OVC,0.14,0.00,VWS V15.00,2013-10-19 03:45:00,
2013-10-18 22:47:00,35.1,31.9,29.86,WSW,245,0.0,0.0,88,0.00,,OVC,0.14,0.00,VWS V14.01,2013-10-19 03:47:00,
2013-10-18 22:50:00,34.6,31.4,29.86,WSW,245,0.0,0.0,88,0.00,,OVC,0.14,0.00,VWS V15.00,2013-10-19 03:50:00,
2013-10-18 22:52:00,34.6,31.4,29.86,WSW,245,0.0,0.0,88,0.00,,OVC,0.14,0.00,VWS V14.01,2013-10-19 03:52:00,
2013-10-18 22:55:00,34.5,31.3,29.86,WSW,245,0.0,0.0,88,0.00,,OVC,0.14,0.00,VWS V15.00,2013-10-19 03:55:00,
2013-10-18 22:57:00,34.5,31.3,29.86,WSW,245,0.0,0.0,88,0.00,,OVC,0.14,0.00,VWS V14.01,2013-10-19 03:57:00,
2013-10-18 23:01:00,34.4,31.5,29.86,WSW,245,0.0,0.0,89,0.00,,OVC,0.14,0.00,VWS V14.01,2013-10-19 04:01:00,
2013-10-18 23:02:00,34.4,31.5,29.86,WSW,245,0.0,0.0,89,0.00,,OVC,0.14,0.00,VWS V14.01,2013-10-19 04:02:00,
2013-10-18 23:05:00,34.4,31.5,29.86,WSW,245,0.0,0.0,89,0.00,,OVC,0.14,0.00,VWS V14.01,2013-10-19 04:05:00,
2013-10-18 23:10:00,34.4,31.5,29.86,WSW,244,2.0,2.0,89,0.00,,OVC,0.14,0.00,VWS V14.01,2013-10-19 04:10:00,
2013-10-18 23:15:00,34.8,31.9,29.86,SW,236,0.0,3.0,89,0.00,,OVC,0.14,0.00,VWS V14.01,2013-10-19 04:15:00,
2013-10-18 23:20:00,35.0,31.8,29.85,SW,235,0.0,2.0,88,0.00,,OVC,0.14,0.00,VWS V14.01,2013-10-19 04:20:00,
2013-10-18 23:25:00,35.3,32.1,29.85,SW,231,0.0,3.0,88,0.00,,OVC,0.14,0.00,VWS V14.01,2013-10-19 04:25:00,
2013-10-18 23:30:00,35.5,32.0,29.85,SW,231,0.0,3.0,87,0.00,,OVC,0.14,0.00,VWS V14.01,2013-10-19 04:30:00,
2013-10-18 23:35:00,35.6,31.8,29.85,SW,231,0.0,2.0,86,0.00,,OVC,0.14,0.00,VWS V15.00,2013-10-19 04:35:00,
2013-10-18 23:36:00,35.6,31.8,29.85,SW,231,0.0,2.0,86,0.00,,OVC,0.14,0.00,VWS V14.01,2013-10-19 04:36:00,
2013-10-18 23:40:00,35.7,31.9,29.85,SW,231,0.0,3.0,86,0.00,,OVC,0.14,0.00,VWS V15.00,2013-10-19 04:40:00,
2013-10-18 23:41:00,35.7,31.9,29.85,SW,231,0.0,3.0,86,0.00,,OVC,0.14,0.00,VWS V14.01,2013-10-19 04:41:00,
2013-10-18 23:45:00,35.7,31.9,29.84,SW,231,0.0,0.0,86,0.00,,OVC,0.14,0.00,VWS V15.00,2013-10-19 04:45:00,
2013-10-18 23:46:00,35.7,31.9,29.84,SW,231,0.0,0.0,86,0.00,,OVC,0.14,0.00,VWS V14.01,2013-10-19 04:46:00,
2013-10-18 23:50:00,35.7,31.9,29.84,SW,231,0.0,3.0,86,0.00,,OVC,0.14,0.00,VWS V15.00,2013-10-19 04:50:00,
2013-10-18 23:51:00,35.6,31.8,29.84,SW,231,0.0,3.0,86,0.00,,OVC,0.14,0.00,VWS V14.01,2013-10-19 04:51:00,
2013-10-18 23:55:00,36.1,32.0,29.84,SW,231,1.0,1.0,85,0.00,,OVC,0.14,0.00,VWS V15.00,2013-10-19 04:55:00,
2013-10-18 23:56:00,36.1,32.0,29.84,SW,231,0.0,0.0,85,0.00,,OVC,0.14,0.00,VWS V14.01,2013-10-19 04:56:00,